EW0915 Weather Reports


Display with metric or nautical units.
time (UTC)temp
F
wind
direction
speed
MPH
gust
MPH
rain 1hr
in
rain 24hr
in
rain mn
in
humidity
%
barometer
mb
20260507051100 42 0.0 2.0 0.00 0.00 0.00 78 1017.8
20260507050018 42 0.0 2.0 0.00 0.00 0.00 78 1017.8
20260507045019 42 0.0 1.0 0.00 0.00 0.00 77 1017.7
20260507044038 43 0.0 2.0 0.00 0.00 0.00 77 1017.8
20260507043018 43 0.0 1.0 0.00 0.00 0.00 77 1017.7
20260507042016 43 0.0 1.0 0.00 0.00 0.00 76 1017.6
20260507041016 43 0.0 1.0 0.00 0.00 0.00 76 1017.8
20260507040016 44 0.0 1.0 0.00 0.00 0.00 76 1017.9
20260507035018 44 0.0 0.0 0.00 0.00 0.00 76 1018.0
20260507034016 44 0.0 0.0 0.00 0.00 0.00 75 1018.0
20260507033019 45 0.0 1.0 0.00 0.00 0.00 75 1018.0
20260507032038 45 0.0 1.0 0.00 0.00 0.00 74 1018.0
20260507031016 45 0.0 1.0 0.00 0.00 0.00 74 1018.1
20260507030018 45 0.0 1.0 0.00 0.00 0.00 74 1018.1
20260507025016 45 0.0 1.0 0.00 0.00 0.00 74 1018.2
20260507024016 45 0.0 1.0 0.00 0.00 0.00 73 1018.2
20260507023017 45 0.0 1.0 0.00 0.00 0.00 73 1018.2
20260507022017 45 0.0 1.0 0.00 0.00 0.00 73 1018.2
20260507021016 45 0.0 1.0 0.00 0.00 0.00 74 1018.2
20260507020038 45 0.0 2.0 0.00 0.00 0.00 73 1018.2
20260507015016 45 0.0 1.0 0.00 0.00 0.00 73 1018.0
20260507014016 45 0.0 1.0 0.00 0.00 0.00 72 1018.1
20260507013017 46 0.0 1.0 0.00 0.00 0.00 72 1018.2
20260507012017 46 0 1.0 4.0 0.00 0.00 0.00 71 1018.1
20260507011056 46 0.0 5.0 0.00 0.00 0.00 71 1018.3
20260507010016 46 0.0 2.0 0.00 0.00 0.00 71 1018.3
20260507005016 46 0.0 2.0 0.00 0.00 0.00 70 1018.5
20260507004039 46 0 1.0 3.0 0.00 0.00 0.00 70 1018.5
20260507003016 46 0.0 3.0 0.00 0.00 0.00 70 1018.5
20260507002037 46 0.0 3.0 0.00 0.00 0.00 70 1018.6
20260507001016 46 0.0 1.0 0.00 0.00 0.00 70 1018.7
20260507000038 46 0.0 1.0 0.00 0.00 0.00 71 1018.7
20260506235016 46 0.0 2.0 0.00 0.00 0.00 71 1018.7
20260506234017 46 0.0 1.0 0.00 0.00 0.00 70 1018.7
20260506233017 46 0.0 4.0 0.00 0.00 0.00 70 1018.8
20260506232017 46 0 1.0 6.0 0.00 0.00 0.00 69 1018.9
20260506231016 46 0 1.0 5.0 0.00 0.00 0.00 69 1018.9
20260506230016 46 338 1.0 6.0 0.00 0.00 0.00 68 1019.0
20260506225016 46 0 1.0 6.0 0.00 0.00 0.00 69 1019.0
20260506224016 47 0 1.0 7.0 0.00 0.00 0.00 68 1019.1
20260506223016 47 0 1.0 6.0 0.00 0.00 0.00 69 1019.1
20260506222016 47 0.0 2.0 0.00 0.00 0.00 68 1019.1
20260506221016 48 0 1.0 3.0 0.00 0.00 0.00 68 1019.1
20260506220017 48 0.0 4.0 0.00 0.00 0.00 67 1019.1
20260506215017 48 0.0 2.0 0.00 0.00 0.00 66 1019.1
20260506214017 49 0.0 1.0 0.00 0.00 0.00 65 1019.1
20260506213016 49 0.0 1.0 0.00 0.00 0.00 66 1019.0
20260506212015 49 0.0 1.0 0.00 0.00 0.00 66 1019.0
20260506211015 49 0.0 0.0 0.00 0.00 0.00 68 1019.1
20260506210016 49 0.0 0.0 0.00 0.00 0.00 69 1019.1
20260506205018 50 0.0 0.0 0.00 0.00 0.00 69 1019.2
20260506204016 50 0.0 0.0 0.00 0.00 0.00 68 1019.1
20260506203015 50 0.0 1.0 0.00 0.00 0.00 67 1019.1
20260506202017 50 0.0 1.0 0.00 0.00 0.00 67 1019.1
20260506201016 51 0.0 2.0 0.00 0.00 0.00 66 1019.0
20260506200016 51 0.0 5.0 0.00 0.00 0.00 66 1019.0
20260506195015 51 0.0 1.0 0.00 0.00 0.00 65 1018.9
20260506194035 52 0.0 2.0 0.00 0.00 0.00 64 1018.8
20260506193016 52 0.0 1.0 0.00 0.00 0.00 64 1018.8
20260506192015 52 0.0 1.0 0.00 0.00 0.00 63 1018.9
20260506191016 52 0.0 2.0 0.00 0.00 0.00 62 1018.9
20260506190015 52 0.0 3.0 0.00 0.00 0.00 61 1018.9
20260506185017 52 113 1.0 4.0 0.00 0.00 0.00 61 1018.9
20260506184017 53 90 1.0 5.0 0.00 0.00 0.00 60 1018.8
20260506183015 53 0.0 2.0 0.00 0.00 0.00 60 1018.8
20260506182037 53 338 1.0 3.0 0.00 0.00 0.00 58 1018.7
20260506181017 53 338 1.0 4.0 0.00 0.00 0.00 57 1018.7
20260506180017 53 338 1.0 4.0 0.00 0.00 0.00 56 1018.7
20260506175017 53 338 1.0 4.0 0.00 0.00 0.00 54 1018.8
20260506174019 53 338 1.0 4.0 0.00 0.00 0.00 53 1018.9
20260506173017 54 338 1.0 4.0 0.00 0.00 0.00 52 1018.8
20260506172017 54 338 1.0 3.0 0.00 0.00 0.00 52 1018.7
20260506171019 54 338 1.0 5.0 0.00 0.00 0.00 52 1018.8
20260506170019 54 338 1.0 5.0 0.00 0.00 0.00 51 1019.0
20260506165017 54 338 1.0 4.0 0.00 0.00 0.00 51 1019.0
20260506164017 54 338 1.0 3.0 0.00 0.00 0.00 51 1019.1
20260506163018 54 338 1.0 7.0 0.00 0.00 0.00 52 1019.1
20260506162017 54 338 1.0 4.0 0.00 0.00 0.00 52 1019.1
20260506161019 54 338 1.0 6.0 0.00 0.00 0.00 51 1019.1
20260506160039 54 338 1.0 4.0 0.00 0.00 0.00 52 1019.4
20260506155017 54 23 1.0 3.0 0.00 0.00 0.00 53 1019.4
20260506154017 54 338 1.0 7.0 0.00 0.00 0.00 52 1019.4
20260506153059 54 0.0 1.0 0.00 0.00 0.00 50 1019.6
20260506152019 55 338 1.0 3.0 0.00 0.00 0.00 49 1019.7
20260506151019 55 0.0 1.0 0.00 0.00 0.00 49 1019.8
20260506150017 55 0.0 5.0 0.00 0.00 0.00 48 1019.9
20260506145017 55 0 1.0 4.0 0.00 0.00 0.00 48 1019.9
20260506144017 55 0 1.0 6.0 0.00 0.00 0.00 49 1019.9
20260506143018 55 0 2.0 5.0 0.00 0.00 0.00 49 1019.9
20260506142018 55 0 2.0 6.0 0.00 0.00 0.00 48 1020.0
20260506141018 55 0 2.0 8.0 0.00 0.00 0.00 49 1020.1
20260506140037 55 225 1.0 3.0 0.00 0.00 0.00 48 1020.1
20260506135017 55 338 1.0 3.0 0.00 0.00 0.00 48 1020.3
20260506134038 56 0.0 4.0 0.00 0.00 0.00 47 1020.2
20260506133017 55 23 1.0 4.0 0.00 0.00 0.00 48 1020.3
20260506132017 55 0.0 4.0 0.00 0.00 0.00 47 1020.3
20260506131017 56 338 1.0 4.0 0.00 0.00 0.00 46 1020.6
20260506130017 56 338 1.0 4.0 0.00 0.00 0.00 47 1020.7
20260506125017 55 113 1.0 4.0 0.00 0.00 0.00 48 1020.7
20260506124020 55 113 2.0 6.0 0.00 0.00 0.00 47 1020.8
20260506123018 54 0 1.0 7.0 0.00 0.00 0.00 49 1020.8
20260506122017 53 0 1.0 5.0 0.00 0.00 0.00 50 1020.7
20260506121018 53 0 1.0 5.0 0.00 0.00 0.00 49 1020.8
20260506120018 52 0 2.0 5.0 0.00 0.00 0.00 50 1020.7
20260506115017 52 0 2.0 6.0 0.00 0.00 0.00 53 1020.8
20260506114017 52 0 2.0 7.0 0.00 0.00 0.00 52 1021.0
20260506113017 52 338 1.0 7.0 0.00 0.00 0.00 51 1021.1
20260506112018 52 338 1.0 5.0 0.00 0.00 0.00 52 1021.3
20260506111017 52 338 1.0 8.0 0.00 0.00 0.00 51 1021.3
20260506110016 51 0 2.0 8.0 0.00 0.00 0.00 55 1021.4
20260506105018 51 0 1.0 4.0 0.00 0.00 0.00 53 1021.4
20260506104017 51 23 1.0 8.0 0.00 0.00 0.00 54 1021.6
20260506103017 51 23 1.0 8.0 0.00 0.00 0.00 53 1021.7
20260506102037 50 0 1.0 6.0 0.00 0.00 0.00 55 1021.7
20260506101018 49 0 1.0 7.0 0.00 0.00 0.00 55 1021.8
20260506100018 49 0 2.0 7.0 0.00 0.00 0.00 56 1021.9
20260506095017 49 338 1.0 7.0 0.00 0.00 0.00 56 1022.0
20260506094016 49 338 1.0 6.0 0.00 0.00 0.00 56 1022.0
20260506093018 49 338 1.0 6.0 0.00 0.00 0.00 57 1022.1
20260506092018 47 0 1.0 5.0 0.00 0.00 0.00 59 1022.2
20260506091016 47 0 1.0 6.0 0.00 0.00 0.00 59 1022.3
20260506090016 47 338 1.0 6.0 0.00 0.00 0.00 61 1022.5
20260506085018 47 23 2.0 7.0 0.00 0.00 0.00 62 1022.4
20260506084016 47 338 1.0 5.0 0.00 0.00 0.00 62 1022.5
20260506083038 46 0 1.0 5.0 0.00 0.00 0.00 65 1022.4
20260506082016 46 338 1.0 7.0 0.00 0.00 0.00 64 1022.4
20260506081038 46 338 1.0 4.0 0.00 0.00 0.00 66 1022.3
20260506073016 44 0.0 2.0 0.00 0.00 0.00 71 1022.4
20260506072016 44 0.0 1.0 0.00 0.00 0.00 72 1022.4
20260506071018 44 0.0 1.0 0.00 0.00 0.00 74 1022.5
20260506062038 42 0.0 1.0 0.00 0.00 0.00 76 1022.1
20260506061018 42 0.0 1.0 0.00 0.00 0.00 76 1022.1